GW3133 Weather Reports


time (UTC)temp
C
wind
direction
speed
KPH
gust
KPH
rain 1hr
cm
rain 24hr
cm
rain mn
cm
humidity
%
barometer
mb
20260505164920 24 240 14.5 32.2 0.00 0.00 0.00 56 1013.6
20260505164020 23 236 17.7 33.8 0.00 0.00 0.00 56 1013.8
20260505163120 23 248 12.9 29.0 0.00 0.00 0.00 56 1013.8
20260505162220 23 244 11.3 29.0 0.00 0.00 0.00 59 1013.8
20260505161321 23 236 11.3 27.4 0.00 0.00 0.00 59 1014.0
20260505160420 23 236 11.3 29.0 0.00 0.00 0.00 60 1014.0
20260505152820 22 237 9.7 27.4 0.00 0.00 0.00 62 1014.0
20260505123720 19 271 6.4 12.9 0.00 0.00 0.00 66 1013.8
20260505122820 18 270 8.0 12.9 0.00 0.00 0.00 67 1013.9
20260505121920 18 274 8.0 16.1 0.00 0.00 0.00 67 1014.0
20260505121020 18 271 6.4 12.9 0.00 0.00 0.00 68 1013.8
20260505120120 18 269 6.4 16.1 0.00 0.00 0.00 69 1013.7
20260505114321 18 270 6.4 12.9 0.00 0.00 0.00 69 1013.5
20260505112520 18 269 6.4 14.5 0.00 0.00 0.00 69 1013.4
20260505111620 17 264 8.0 16.1 0.00 0.00 0.00 69 1013.4
20260505110720 17 266 8.0 14.5 0.00 0.00 0.00 69 1013.3
20260505095520 17 264 6.4 16.1 0.00 0.00 0.00 69 1013.1
20260505094620 17 260 6.4 19.3 0.00 0.00 0.00 69 1012.9
20260505093720 17 262 8.0 17.7 0.00 0.00 0.00 69 1012.9
20260505092820 17 265 6.4 14.5 0.00 0.00 0.00 70 1012.9
20260505091920 17 266 6.4 14.5 0.00 0.00 0.00 71 1012.9
20260505091020 17 259 6.4 17.7 0.00 0.00 0.00 71 1012.8
20260505090120 17 258 6.4 16.1 0.00 0.00 0.00 72 1012.7
20260505085220 17 256 6.4 16.1 0.00 0.00 0.00 72 1012.7
20260505084320 17 265 6.4 14.5 0.00 0.00 0.00 71 1012.8
20260505083420 17 263 6.4 17.7 0.00 0.00 0.00 71 1012.7
20260505082520 17 262 6.4 14.5 0.00 0.00 0.00 71 1012.7
20260505080720 17 264 8.0 17.7 0.00 0.00 0.00 71 1012.7
20260505075820 17 265 8.0 20.9 0.00 0.00 0.00 70 1012.6
20260505074921 17 263 8.0 24.1 0.00 0.00 0.00 70 1012.7
20260505073120 17 264 8.0 20.9 0.00 0.00 0.00 70 1012.6
20260505072220 17 263 9.7 20.9 0.00 0.00 0.00 70 1012.5
20260505071320 17 262 9.7 19.3 0.00 0.00 0.00 72 1012.6
20260505070420 17 259 9.7 29.0 0.00 0.00 0.00 71 1012.7
20260505065520 17 256 12.9 27.4 0.00 0.00 0.00 71 1012.6
20260505064620 18 254 12.9 27.4 0.00 0.00 0.00 69 1012.7
20260505062820 18 248 12.9 29.0 0.00 0.00 0.00 69 1012.6
20260505061920 18 248 16.1 30.6 0.00 0.00 0.00 69 1012.5
20260505061019 18 246 14.5 30.6 0.00 0.00 0.00 69 1012.4
20260505060119 18 248 12.9 27.4 0.00 0.00 0.00 69 1012.5
20260505055220 18 249 14.5 27.4 0.00 0.00 0.00 70 1012.5
20260505053420 17 245 14.5 35.4 0.00 0.00 0.00 73 1012.5
20260505051619 17 245 11.3 25.7 0.00 0.00 0.00 74 1012.6
20260505050719 18 239 11.3 20.9 0.00 0.00 0.00 73 1012.5
20260505041319 18 237 11.3 20.9 0.00 0.00 0.00 70 1012.5
20260505035520 18 238 11.3 20.9 0.00 0.00 0.00 71 1012.4
20260505034619 18 230 11.3 20.9 0.00 0.00 0.00 71 1012.4
20260505033719 18 239 11.3 20.9 0.00 0.00 0.00 71 1012.4
20260505032819 18 238 12.9 24.1 0.00 0.00 0.00 70 1012.4
20260505031919 18 238 12.9 24.1 0.00 0.00 0.00 69 1012.3
20260505031019 18 235 12.9 24.1 0.00 0.00 0.00 69 1012.5
20260505030119 18 236 12.9 27.4 0.00 0.00 0.00 69 1012.4
20260505025219 18 235 11.3 20.9 0.00 0.00 0.00 71 1012.3
20260505022519 18 220 11.3 24.1 0.00 0.00 0.00 72 1012.3
20260505021619 18 220 11.3 22.5 0.00 0.00 0.00 72 1012.3
20260505020719 18 229 11.3 22.5 0.00 0.00 0.00 72 1012.5
20260505015819 18 235 12.9 27.4 0.00 0.00 0.00 70 1012.5
20260505014919 18 233 12.9 27.4 0.00 0.00 0.00 68 1012.5
20260505014019 18 231 12.9 24.1 0.00 0.00 0.00 67 1012.4
20260505013119 19 230 12.9 25.7 0.00 0.00 0.00 64 1012.4
20260505012219 19 229 12.9 30.6 0.00 0.00 0.00 61 1012.3
20260505011319 19 215 9.7 29.0 0.00 0.00 0.00 60 1012.1
20260505010419 19 224 6.4 19.3 0.00 0.00 0.00 59 1012.1
20260505005519 19 235 6.4 12.9 0.00 0.00 0.00 60 1012.0
20260505004619 20 238 8.0 20.9 0.00 0.00 0.00 60 1011.8
20260505003719 20 236 6.4 14.5 0.00 0.00 0.00 60 1011.7
20260505002819 20 242 8.0 16.1 0.00 0.00 0.00 60 1011.9
20260505001919 20 240 6.4 14.5 0.00 0.00 0.00 60 1011.9
20260505001018 20 244 9.7 17.7 0.00 0.00 0.00 59 1011.9
20260505000119 20 239 9.7 22.5 0.00 0.00 0.00 59 1011.9
20260504235219 20 231 9.7 22.5 0.00 0.00 0.00 57 1011.8
20260504234318 21 234 9.7 20.9 0.00 0.00 0.00 56 1011.7
20260504233419 21 233 9.7 20.9 0.00 0.00 0.00 55 1011.8
20260504232519 21 242 11.3 20.9 0.00 0.00 0.00 53 1011.7
20260504230719 21 235 11.3 24.1 0.00 0.00 0.00 51 1011.7
20260504225819 21 241 11.3 24.1 0.00 0.00 0.00 50 1011.8
20260504224919 21 234 12.9 37.0 0.00 0.00 0.00 48 1011.6
20260504222218 22 230 12.9 22.5 0.00 0.00 0.00 47 1011.6
20260504221318 22 219 12.9 32.2 0.00 0.00 0.00 45 1011.6
20260504220418 22 218 12.9 30.6 0.00 0.00 0.00 47 1011.6
20260504214618 22 220 12.9 32.2 0.00 0.00 0.00 46 1011.6
20260504213718 22 227 16.1 30.6 0.00 0.00 0.00 45 1011.7
20260504212818 22 212 16.1 30.6 0.00 0.00 0.00 45 1011.7
20260504211018 23 215 11.3 27.4 0.00 0.00 0.00 42 1011.8
20260504210118 23 224 12.9 27.4 0.00 0.00 0.00 42 1011.8
20260504205218 23 246 11.3 27.4 0.00 0.00 0.00 40 1011.8
20260504204318 23 205 11.3 20.9 0.00 0.00 0.00 43 1011.9
20260504203418 23 231 11.3 22.5 0.00 0.00 0.00 43 1011.9
20260504202518 23 254 9.7 22.5 0.00 0.00 0.00 41 1012.0
20260504200718 23 239 11.3 24.1 0.00 0.00 0.00 41 1012.2
20260504195818 22 234 16.1 32.2 0.00 0.00 0.00 40 1012.3
20260504194918 22 232 11.3 32.2 0.00 0.00 0.00 41 1012.4
20260504194018 23 242 9.7 24.1 0.00 0.00 0.00 41 1012.5
20260504193118 22 242 11.3 25.7 0.00 0.00 0.00 40 1012.8
20260504191318 22 248 8.0 24.1 0.00 0.00 0.00 39 1013.0
20260504190418 22 249 8.0 19.3 0.00 0.00 0.00 38 1013.1
20260504184618 22 239 9.7 22.5 0.00 0.00 0.00 40 1013.3
20260504183718 22 240 8.0 19.3 0.00 0.00 0.00 41 1013.4
20260504181918 21 225 9.7 22.5 0.00 0.00 0.00 42 1013.6
20260504181018 21 207 9.7 22.5 0.00 0.00 0.00 41 1013.8
20260504180118 21 224 11.3 19.3 0.00 0.00 0.00 40 1013.9
20260504175218 21 240 8.0 19.3 0.00 0.00 0.00 42 1014.1
20260504174318 21 224 6.4 19.3 0.00 0.00 0.00 41 1014.2
20260504173418 21 219 9.7 24.1 0.00 0.00 0.00 42 1014.2
20260504172518 21 233 8.0 20.9 0.00 0.00 0.00 43 1014.2
20260504171618 21 241 4.8 16.1 0.00 0.00 0.00 42 1014.3
20260504170718 21 256 6.4 14.5 0.00 0.00 0.00 41 1014.4